Nanning Wuxu Airport
ZGNN : now visible

Airfield :











YOU CAN JOIN US ON...

 
LOGIN :

Register | Disclaimer

   EN    FR    IT 

 









Legend :    VFR   Marginal VFR   IFR   Intensive IFR   Very Intensive IFR
Visi :
Ceiling :
>= 8 km
>= 3000ft
5 to 8 km
1000 to 3000 ft
1500m to 5 km
500 to 1000 ft
800 to 1500m
200 to 500 ft
< 800m
< 200 ft
Symbols :   Thunderstorms  Fog  Heavy snow  Heavy precipitations  Wind > 20 kt






- Airport Elevation : 421 ft
- IATA code : NNG


ZGNN - Nanning Wuxu

CURRENT METAR :
  • 250100Z 03003MPS 9999 FEW010 BKN023 29/26 Q0997 NOSIG

EXPIRED METARs :
  • 250000Z 06002MPS 9999 FEW007 SCT010 BKN023 27/26 Q0996 NOSIG
  • 242300Z 04003MPS 9999 FEW008 BKN023 26/26 Q0996 NOSIG
  • 242200Z 04003MPS 9999 FEW007 BKN023 26/26 Q0995 NOSIG
  • 242100Z 03002MPS 9999 SCT007 SCT016 26/26 Q0995 NOSIG

TAF TAF ZGNN
Valid from the 25 at 00:00 until the 26 at 00:00 UTC


242109Z 2500/2524 06003MPS 6000 SCT006 BKN013 TX35/2507Z TN26/2522Z
BECMG 2502/2503 SCT033
ZGZU FIR / Asia



MET'MAP, your aeronautical weather chart ! - Copyright ORBIFLY December 2007 - Disclaimer

ORBIFLY MET'MAP TEAM :

Programming & Development : Alexandra Zaïnal
Original concept : Baudouin d'Aumeries
Technical & hardware support : Manuel Goepfert
Assistance : Marc-Olivier Méhu




SOURCES & CREDITS :

   NOAA       Earth
Advisory